Location: Caltech
(34.1382°N, 118.1253°W)
Time: 16:54:22
(UTC-07:00)

NOAA 19 - Visible Passes

Search period start: 19 September 2014 00:00
Search period end: 29 September 2014 00:00
Orbit: 843 x 863 km, 99.0° (Epoch: 19 September)

Date Brightness Start Highest point End Pass type
(mag) Time Alt. Az. Time Alt. Az. Time Alt. Az.
19 Sep 7.9 02:43:55 10° NNE 02:44:31 13° NNE 02:44:31 13° NNE visible
19 Sep 7.4 04:26:02 10° NNW 04:26:34 12° NNW 04:26:34 12° NNW visible
20 Sep 8.1 02:33:01 10° NNE 02:33:12 11° NNE 02:33:12 11° NNE visible
20 Sep 7.4 04:14:29 10° NNW 04:15:15 13° NNW 04:15:15 13° NNW visible
21 Sep 7.4 04:03:04 10° NNW 04:03:57 14° NNW 04:03:57 14° NNW visible
22 Sep 7.5 03:51:45 10° N 03:52:38 14° N 03:52:38 14° N visible
23 Sep 7.5 03:40:30 10° N 03:41:20 14° N 03:41:20 14° N visible
24 Sep 7.6 03:29:19 10° N 03:30:01 14° N 03:30:01 14° N visible
25 Sep 7.8 03:18:10 10° N 03:18:42 13° N 03:18:42 13° N visible
26 Sep 7.9 03:07:05 10° NNE 03:07:23 12° NNE 03:07:23 12° NNE visible
27 Sep 8.1 02:56:04 10° NNE 02:56:04 10° NNE 02:56:04 10° NNE visible
